NOAA 16 DEB, 41071

Orbit data source: Space-Track

NOAA 16 DEB, 41071 is space debris in SSO originally from a launch on Thu, 21 Sep 2000 UTC launched from the Air Force Western Test Range (AFWTR). Debris objects in space refer to the collection of defunct objects orbiting the Earth. Examples of debris include non-operational satellites, rocket bodies, and fragments generated from explosions, collisions, or faulty payload assembly.

Loading next visibility...
Identifier
41071, 2000-055AE
Orbit
SSO
Country
Flag of USUS
Related business
Manufacturer
Unknown
Mission
Spacecraft
Bus & Motor
Unknown
Mass
Unknown
Launch date (UTC)
2000-09-21 (26 years ago)
Launch vehicle
Unknown
Launch site
Air Force Western Test Range (AFWTR)
Object type
Payload
Rocket body
Debris
Shape & HBR
Unknown shape, 0.2 m
Radar Cross Section
Medium (>0.1 m² and <1 m²)

Expand to show TLE details & history
Last TLE update: 16 hours ago

TLE from 16 hours ago
0 NOAA 16 DEB
1 41071U 00055AE  26227.25576220  .00001758  00000-0  69515-3 0  9991
2 41071  98.8226 336.4019 0011401 173.2489 186.8849 14.30249062554321
Epoch: 2026-08-15T06:08Z
TLE epoch observation values (Epoch: 2026-08-15T06:08:17.854Z)
Latitude
0.00006°
Longitude
-79.34176°
Altitude
801.939 km
Speed
7.448 km/s
True Right ascension
22h 25m 36s
True Declination
0° 00' 00"
Sunlit
Object was in full shadow at epoch
Visualization orbit readout
Latitude
Unknown
Longitude
Unknown
Altitude
Unknown
Speed
Unknown
Apparent Right ascension
Unknown
Apparent Declination
Unknown
Sunlit
N/A
Visualization observer readout
Local Sidereal Time
12:15:22
Azimuth
Unknown
Elevation
Unknown
Doppler factor
Unknown
Orbital elements
Apogee altitude
796.219 km
Perigee altitude
779.879 km
Semi-major axis
7,166.186 km
Eccentricity
0.00114
Inclination
98.8226°
RAAN
336.4019°
Arg. of periapsis
173.2489°
True anomaly
186.86926°
Mean anomaly
186.8849°
Eccentric anomaly
186.87708°
Mean motion
3.57776 °/min
Orbital period
100.62 mins
BSTAR
0.00069515
Loading maneuver chart data...
Computing Atmospheric mass density...
Loading historical data...
Loading historical data...
Loading historical data...
Loading historical data...
Loading historical data...
Loading historical data...
Loading historical data...

Documentation

Showing up to 5 results
|